timestamp,wind_dir_avg,wind_spd_max_dir,wind_spd_avg,wind_spd_gust,battery_voltage,lat,long
2018-03-12 00:00:00+00:00,81.0,79.0,7.04,7.74,,47.59359,-54.27349
2018-03-12 00:10:00+00:00,82.0,87.0,6.28,6.94,,47.59359,-54.27349
2018-03-12 00:20:00+00:00,75.0,76.0,6.47,7.06,,47.59359,-54.27349
2018-03-12 00:30:00+00:00,76.0,84.0,5.98,6.92,,47.59359,-54.27349
2018-03-12 00:40:00+00:00,73.0,76.0,6.01,6.95,,47.59359,-54.27349
2018-03-12 00:50:00+00:00,78.0,81.0,4.55,5.73,,47.59359,-54.27349
2018-03-12 01:00:00+00:00,74.0,73.0,5.32,6.21,,47.59359,-54.27349
2018-03-12 01:10:00+00:00,76.0,77.0,4.89,5.83,,47.59359,-54.27349
2018-03-12 01:20:00+00:00,62.0,55.0,6.73,7.86,,47.59359,-54.27349
2018-03-12 01:30:00+00:00,53.0,53.0,7.75,8.57,,47.59359,-54.27349
2018-03-12 01:40:00+00:00,50.0,49.0,8.52,9.5,,47.59359,-54.27349
2018-03-12 01:50:00+00:00,51.0,57.0,7.81,8.76,,47.59359,-54.27349
2018-03-12 02:00:00+00:00,46.0,49.0,8.08,9.66,,47.59359,-54.27349
2018-03-12 02:10:00+00:00,46.0,47.0,8.82,10.44,,47.59359,-54.27349
2018-03-12 02:20:00+00:00,50.0,50.0,9.11,9.8,,47.59359,-54.27349
2018-03-12 02:30:00+00:00,48.0,47.0,9.42,10.18,,47.59359,-54.27349
2018-03-12 02:40:00+00:00,47.0,51.0,8.48,9.67,,47.59359,-54.27349
2018-03-12 02:50:00+00:00,53.0,53.0,8.6,9.58,,47.59359,-54.27349
2018-03-12 03:00:00+00:00,50.0,51.0,8.55,9.55,,47.59359,-54.27349
2018-03-12 03:10:00+00:00,50.0,49.0,8.34,9.54,,47.59359,-54.27349
2018-03-12 03:20:00+00:00,45.0,45.0,8.21,8.95,,47.59359,-54.27349
2018-03-12 03:30:00+00:00,48.0,49.0,8.66,10.07,,47.59359,-54.27349
2018-03-12 03:40:00+00:00,52.0,57.0,8.32,9.46,,47.59359,-54.27349
2018-03-12 03:50:00+00:00,51.0,52.0,7.71,8.91,,47.59359,-54.27349
2018-03-12 04:00:00+00:00,47.0,49.0,7.78,8.47,,47.59359,-54.27349
2018-03-12 04:10:00+00:00,54.0,52.0,7.12,7.76,,47.59359,-54.27349
2018-03-12 04:20:00+00:00,49.0,52.0,6.35,7.1,,47.59359,-54.27349
2018-03-12 04:30:00+00:00,46.0,44.0,7.1,8.04,,47.59359,-54.27349
2018-03-12 04:40:00+00:00,48.0,51.0,8.4,9.23,,47.59359,-54.27349
2018-03-12 04:50:00+00:00,46.0,46.0,7.33,8.45,,47.59359,-54.27349
2018-03-12 05:00:00+00:00,44.0,46.0,7.7,8.32,,47.59359,-54.27349
2018-03-12 05:10:00+00:00,42.0,42.0,7.65,8.11,,47.59359,-54.27349
2018-03-12 05:20:00+00:00,48.0,49.0,8.25,8.8,,47.59359,-54.27349
2018-03-12 05:30:00+00:00,46.0,46.0,7.27,7.91,,47.59359,-54.27349
2018-03-12 05:40:00+00:00,48.0,51.0,7.22,8.22,,47.59359,-54.27349
2018-03-12 05:50:00+00:00,46.0,50.0,7.03,8.04,,47.59359,-54.27349
2018-03-12 06:00:00+00:00,45.0,48.0,7.76,8.38,,47.59359,-54.27349
2018-03-12 06:10:00+00:00,47.0,48.0,7.55,8.29,,47.59359,-54.27349
2018-03-12 06:20:00+00:00,45.0,48.0,7.26,8.68,,47.59359,-54.27349
2018-03-12 06:30:00+00:00,48.0,49.0,7.16,7.86,,47.59359,-54.27349
2018-03-12 06:40:00+00:00,47.0,49.0,6.87,7.83,,47.59359,-54.27349
2018-03-12 06:50:00+00:00,48.0,51.0,6.29,6.86,,47.59359,-54.27349
2018-03-12 07:00:00+00:00,48.0,53.0,7.27,8.45,,47.59359,-54.27349
2018-03-12 07:10:00+00:00,46.0,50.0,6.86,8.05,,47.59359,-54.27349
2018-03-12 07:20:00+00:00,42.0,43.0,6.59,7.52,,47.59359,-54.27349
2018-03-12 07:30:00+00:00,45.0,48.0,7.36,8.13,,47.59359,-54.27349
2018-03-12 07:40:00+00:00,47.0,51.0,7.3,8.34,,47.59359,-54.27349
2018-03-12 07:50:00+00:00,49.0,49.0,7.5,8.2,,47.59359,-54.27349
2018-03-12 08:00:00+00:00,45.0,48.0,6.23,7.04,,47.59359,-54.27349
2018-03-12 08:10:00+00:00,34.0,36.0,5.57,6.25,,47.59359,-54.27349
2018-03-12 08:20:00+00:00,36.0,37.0,5.58,6.51,,47.59359,-54.27349
2018-03-12 08:30:00+00:00,35.0,36.0,5.46,6.11,,47.59359,-54.27349
2018-03-12 08:40:00+00:00,28.0,23.0,5.0,6.42,,47.59359,-54.27349
2018-03-12 08:50:00+00:00,27.0,29.0,5.58,6.32,,47.59359,-54.27349
2018-03-12 09:00:00+00:00,26.0,29.0,5.82,6.34,,47.59359,-54.27349
2018-03-12 09:10:00+00:00,26.0,34.0,5.89,6.8,,47.59359,-54.27349
2018-03-12 09:20:00+00:00,16.0,20.0,6.01,7.01,,47.59359,-54.27349
2018-03-12 09:30:00+00:00,16.0,18.0,5.52,6.28,,47.59359,-54.27349
2018-03-12 09:40:00+00:00,13.0,19.0,5.52,6.09,,47.59359,-54.27349
2018-03-12 09:50:00+00:00,18.0,20.0,6.61,7.22,,47.59359,-54.27349
2018-03-12 10:00:00+00:00,17.0,16.0,6.41,7.14,,47.59359,-54.27349
2018-03-12 10:10:00+00:00,14.0,14.0,6.63,7.56,,47.59359,-54.27349
2018-03-12 10:20:00+00:00,5.0,5.0,5.0,5.56,,47.59359,-54.27349
2018-03-12 10:30:00+00:00,1.0,3.0,5.18,5.85,,47.59359,-54.27349
2018-03-12 10:40:00+00:00,355.0,358.0,5.83,6.27,,47.59359,-54.27349
2018-03-12 10:50:00+00:00,6.0,8.0,6.0,6.48,,47.59359,-54.27349
2018-03-12 11:00:00+00:00,359.0,357.0,6.75,7.7,,47.59359,-54.27349
2018-03-12 11:10:00+00:00,0.0,2.0,6.25,6.99,,47.59359,-54.27349
2018-03-12 11:20:00+00:00,354.0,351.0,6.1,6.98,,47.59359,-54.27349
2018-03-12 11:30:00+00:00,358.0,356.0,7.02,8.0,,47.59359,-54.27349
2018-03-12 11:40:00+00:00,5.0,8.0,6.97,8.03,,47.59359,-54.27349
2018-03-12 11:50:00+00:00,2.0,3.0,7.39,8.22,,47.59359,-54.27349
2018-03-12 12:00:00+00:00,359.0,359.0,7.81,8.59,,47.59359,-54.27349
2018-03-12 12:10:00+00:00,1.0,1.0,7.93,8.59,,47.59359,-54.27349
2018-03-12 12:20:00+00:00,2.0,3.0,7.37,8.46,,47.59359,-54.27349
2018-03-12 12:30:00+00:00,6.0,5.0,7.69,9.5,,47.59359,-54.27349
2018-03-12 12:40:00+00:00,0.0,5.0,7.83,8.49,,47.59359,-54.27349
2018-03-12 12:50:00+00:00,0.0,358.0,8.22,9.02,,47.59359,-54.27349
2018-03-12 13:00:00+00:00,1.0,3.0,8.96,9.86,,47.59359,-54.27349
2018-03-12 13:10:00+00:00,4.0,6.0,8.21,9.25,,47.59359,-54.27349
2018-03-12 13:20:00+00:00,5.0,6.0,8.46,9.65,,47.59359,-54.27349
2018-03-12 13:30:00+00:00,6.0,7.0,8.98,10.8,,47.59359,-54.27349
2018-03-12 13:40:00+00:00,3.0,4.0,8.31,9.12,,47.59359,-54.27349
2018-03-12 13:50:00+00:00,8.0,13.0,8.26,9.73,,47.59359,-54.27349
2018-03-12 14:00:00+00:00,5.0,6.0,8.92,10.43,,47.59359,-54.27349
2018-03-12 14:10:00+00:00,16.0,21.0,9.51,11.55,,47.59359,-54.27349
2018-03-12 14:20:00+00:00,14.0,13.0,10.42,11.99,,47.59359,-54.27349
2018-03-12 14:30:00+00:00,8.0,4.0,10.88,12.92,,47.59359,-54.27349
2018-03-12 14:40:00+00:00,3.0,4.0,9.94,11.64,,47.59359,-54.27349
2018-03-12 14:50:00+00:00,9.0,9.0,11.17,14.88,,47.59359,-54.27349
2018-03-12 15:00:00+00:00,10.0,15.0,11.13,13.32,,47.59359,-54.27349
2018-03-12 15:10:00+00:00,12.0,12.0,11.46,13.23,,47.59359,-54.27349
2018-03-12 15:20:00+00:00,12.0,11.0,11.51,14.04,,47.59359,-54.27349
2018-03-12 15:30:00+00:00,7.0,8.0,12.41,13.89,,47.59359,-54.27349
2018-03-12 15:40:00+00:00,14.0,9.0,12.95,14.9,,47.59359,-54.27349
2018-03-12 15:50:00+00:00,20.0,20.0,12.62,15.03,,47.59359,-54.27349
2018-03-12 16:00:00+00:00,11.0,13.0,14.18,17.01,,47.59359,-54.27349
2018-03-12 16:10:00+00:00,14.0,16.0,12.99,15.74,,47.59359,-54.27349
2018-03-12 16:20:00+00:00,8.0,3.0,10.83,14.17,,47.59359,-54.27349
2018-03-12 16:30:00+00:00,4.0,2.0,12.85,15.07,,47.59359,-54.27349
2018-03-12 16:40:00+00:00,5.0,4.0,14.21,15.99,,47.59359,-54.27349
2018-03-12 16:50:00+00:00,5.0,8.0,13.06,14.63,,47.59359,-54.27349
2018-03-12 17:00:00+00:00,4.0,2.0,12.92,14.93,,47.59359,-54.27349
2018-03-12 17:10:00+00:00,2.0,1.0,12.98,18.53,,47.59359,-54.27349
2018-03-12 17:20:00+00:00,8.0,1.0,12.76,15.12,,47.59359,-54.27349
2018-03-12 17:30:00+00:00,2.0,358.0,12.33,14.0,,47.59359,-54.27349
2018-03-12 17:40:00+00:00,3.0,2.0,13.72,15.27,,47.59359,-54.27349
2018-03-12 17:50:00+00:00,7.0,6.0,15.64,17.62,,47.59359,-54.27349
2018-03-12 18:00:00+00:00,4.0,5.0,15.97,17.74,,47.59359,-54.27349
2018-03-12 18:10:00+00:00,10.0,12.0,14.34,17.02,,47.59359,-54.27349
2018-03-12 18:20:00+00:00,5.0,5.0,15.01,17.09,,47.59359,-54.27349
2018-03-12 18:30:00+00:00,7.0,10.0,12.96,15.1,,47.59359,-54.27349
2018-03-12 18:40:00+00:00,6.0,10.0,14.52,16.32,,47.59359,-54.27349
2018-03-12 18:50:00+00:00,7.0,13.0,13.77,15.27,,47.59359,-54.27349
2018-03-12 19:00:00+00:00,11.0,13.0,13.55,15.9,,47.59359,-54.27349
2018-03-12 19:10:00+00:00,4.0,5.0,13.49,14.96,,47.59359,-54.27349
2018-03-12 19:20:00+00:00,6.0,9.0,13.88,16.95,,47.59359,-54.27349
2018-03-12 19:30:00+00:00,7.0,7.0,13.57,15.13,,47.59359,-54.27349
2018-03-12 19:40:00+00:00,8.0,10.0,13.71,15.62,,47.59359,-54.27349
2018-03-12 19:50:00+00:00,9.0,4.0,14.51,16.32,,47.59359,-54.27349
2018-03-12 20:00:00+00:00,7.0,9.0,13.99,15.92,,47.59359,-54.27349
2018-03-12 20:10:00+00:00,8.0,12.0,14.55,16.83,,47.59359,-54.27349
2018-03-12 20:20:00+00:00,11.0,14.0,13.16,15.49,,47.59359,-54.27349
2018-03-12 20:30:00+00:00,11.0,13.0,13.62,15.98,,47.59359,-54.27349
2018-03-12 20:40:00+00:00,9.0,9.0,14.31,17.58,,47.59359,-54.27349
2018-03-12 20:50:00+00:00,13.0,14.0,13.9,15.45,,47.59359,-54.27349
2018-03-12 21:00:00+00:00,12.0,11.0,14.15,16.07,,47.59359,-54.27349
2018-03-12 21:10:00+00:00,15.0,12.0,12.68,15.06,,47.59359,-54.27349
2018-03-12 21:20:00+00:00,15.0,13.0,13.39,15.82,,47.59359,-54.27349
2018-03-12 21:30:00+00:00,14.0,12.0,14.28,16.54,,47.59359,-54.27349
2018-03-12 21:40:00+00:00,20.0,18.0,12.93,16.26,,47.59359,-54.27349
2018-03-12 21:50:00+00:00,18.0,20.0,11.89,14.67,,47.59359,-54.27349
2018-03-12 22:00:00+00:00,19.0,19.0,11.69,13.78,,47.59359,-54.27349
2018-03-12 22:10:00+00:00,17.0,16.0,12.32,15.35,,47.59359,-54.27349
2018-03-12 22:20:00+00:00,25.0,28.0,13.35,15.58,,47.59359,-54.27349
2018-03-12 22:30:00+00:00,25.0,27.0,12.44,15.5,,47.59359,-54.27349
2018-03-12 22:40:00+00:00,28.0,39.0,12.85,16.34,,47.59359,-54.27349
2018-03-12 22:50:00+00:00,27.0,26.0,12.54,14.65,,47.59359,-54.27349
2018-03-12 23:00:00+00:00,27.0,28.0,12.07,14.32,,47.59359,-54.27349
2018-03-12 23:10:00+00:00,28.0,32.0,11.54,13.24,,47.59359,-54.27349
2018-03-12 23:20:00+00:00,30.0,33.0,12.55,13.83,,47.59359,-54.27349
2018-03-12 23:30:00+00:00,30.0,33.0,10.87,12.37,,47.59359,-54.27349
2018-03-12 23:40:00+00:00,31.0,32.0,10.46,12.0,,47.59359,-54.27349
2018-03-12 23:50:00+00:00,33.0,35.0,10.46,12.91,,47.59359,-54.27349
